Погода Нерчинский Завод

Погода Нерчинский Завод : погода сейчас, прогноз погоды и архив. Всё, что Вы хотите узнать о погоде Нерчинский Завод!

Хотите узнать прогноз погоды Нерчинский Завод? Тогда Вам сюда: Погода Нерчинский Завод

Поиск расширенной информации на нашем сайте:

Другие новости

Новости СМИ2

Главная страница сайта

Новости сайта

02.10.2013

Напоминаем, что на нашем новом сайте вы можете получить высокодетализированные прогнозы погоды по пунктам России, СНГ и мира (включающие важные для авиации метеовеличины, такие как направление и скорость ветра, видимость, явления погоды, количество и форма облачности, нижняя и верхняя граница облачности), а также ознакомиться с разнообразными материалами по авиационной метеорологии и подборкой полезных ссылок на эту тему.

Сайт Метеоцентр.Азия посвящён разработке технологий оптимизации авиаметеорологического обслуживания, включая проектирование и перспективное создание нескольких автоматизированных авиаметеорологических систем:
- система выпуска высокодетальных прогностических карт явлений погоды для нижнего воздушного пространства по России и ближнему зарубежью;
- система верификации прогнозов TAF (выпускаемых синоптиками официальных АМСГ РФ и ближнего зарубежья) и AUTOTAF (выпускаемых сайтом Метеоцентр.Азия) - выявление ошибок, онлайн-сопоставление с фактической погодой METAR, автоматическое внесение коррективов в прогнозы при резком отклонении фактической погоды от прогноза, подсчёт оправдываемости прогнозов по элементам и в целом;
- система обработки, анализа и отображения авиаметеорологической информации для применения провайдерами метеорологической информации.


Погода Нерчинский Завод - сегодня

Время (UTC), дата Ветер
(°,м/с) 
Видим.   Явления Облачность Т
(°С)
Тd
(°С)
f(%) Тe
(°С)
Pmin
(гПа)
dP
(гПа)
Po
(мм)
O2
(г/м3)
Тmin Tmax R s Состояние
почвы
18 22.05.17 тихо ()   н/о    ясно 
-1.3 -2.6 91 -1  1015.5  0.3  705  286           
21 22.05.17 тихо ()   20000 м    4/0 верхняя 
[Cc]
-1.9 -3.6 88 -2  1015.2  -0.5  705  286           
00 23.05.17 тихо ()   20000 м    10/6 1000 м средняя, верхняя 
[Sc diur, vesp|Ac cuf|Ci sp]
+3.9 -0.1 75 +4  1013.9  0.3  705  280  -2        сухая 
03 23.05.17 310 (СЗ) 20000 м    8/6 1000 м верхняя 
[Cu hum|Ci ing]
+10.2 -7.8 27 +10  1010.7  -1.5  704  274           
06 23.05.17 320 (СЗ) 20000 м    8/8 1000 м 
[Cu hum]
+12.8 -10.6 18 +12  1008.2  -1.6  703  271           
09 23.05.17 340 (С) 4{11}  20000 м    8/8 1000 м 
[Cu med, cong]
+13.3 -12.3 16 +13  1007.4  -0.6  702  271           
12 23.05.17 300 (СЗ) 2{12}  20000 м    1/1 1000 м 
[Sc diur, vesp]
+10.1 -11.5 21 +10  1009.1  0.8  703  274    +14.4       
15 23.05.17 тихо ()   н/о    ясно 
+1.4 -8.2 49 +1  1011.9  0.5  703  283           
18 23.05.17 160 (Ю) н/о    н/о 
-0.9 -8.4 57 1012.5  0.1  703  285           
21 23.05.17 тихо ()   20000 м    ясно 
-1.9 -7.9 63 -2  1014.2  1.3  704  286           
00 24.05.17 070 (В) 20000 м    1/0 верхняя 
[Ci sp]
+8.3 -6 36 +9  1011.9  0.5  704  276  -3.7        сухая 
03 24.05.17 340 (С) 5-11{11}  20000 м    3/0 верхняя 
[Ci]
+11.8 -9.8 21 +11  1010.8  -0.2  704  273           
06 24.05.17 080 (В) 3{11}  20000 м    3/1 1000 м верхняя 
[Cu med, cong|Ci fib]
+15 -9.5 17 +15  1010.2  0.1  704  270           
09 24.05.17 100 (В) 20000 м    8/0 верхняя 
[Cc]
+15.5 -10 16 +16  1010.4  0.4  705  269           
12 24.05.17 250 (З) 20000 м    8/0 средняя, верхняя 
[Ac trans|Cc]
+10.3 -4.6 35 +11  1012.9  1.1  705  274    +16.1       
15 24.05.17 300 (СЗ) н/о    ясно 
+4.1 -4.9 52 +5  1015.7  1.1  706  281           
18 24.05.17 тихо ()   н/о    4/0 верхняя 
[Ci sp]
+4.5 -3.7 55 +5  1016.3  0.6  707  280           
21 24.05.17 160 (Ю) 20000 м    10/4 1000 м средняя 
[Sc|Ac und]
+3.1 -3.1 64 +4  1016  -0.6  706  282           
00 25.05.17 060 (СВ) 20000 м    10/4 1000 м средняя, верхняя 
[Sc|Ac cast|Ci fib]
+10.8 -2.4 40 +12  1013.6  -0.2  706  274  +2.8        сухая 
03 25.05.17 190 (Ю) 20000 м    10/0 верхняя 
[Cs]
+17 -4 23 +18  1010.3  -1.6  705  268           
06 25.05.17 200 (Ю) 4-10{10}  20000 м    6/0 верхняя 
[Cc]
+23.4 +0.5 22 +23  1005.4  -3.2  703  261           
09 25.05.17 190 (Ю) 4{10}  20000 м    4/0 верхняя 
[Ci sp]
+24.8 +0.2 20 +25  1002.5  -2.3  701  259           
12 25.05.17 210 (ЮЗ) 20000 м    8/0 средняя, верхняя 
[Ac As|Cc]
+21 +0.3 25 +21  1003.1  -0.3  701  262    +25.3       
15 25.05.17 140 (ЮВ) н/о    10/0 средняя 
[Ac As]
+17.7 +2.1 35 +19  1004.2  0.3  701  265           
18 25.05.17 260 (З) н/о    9/0 средняя 
[Ac cast]
+13.7 +4.8 55 +15  1004.6  -0.5  700  268           
Время (UTC), дата Ветер
(°,м/с) 
Видим.   Явления Облачность Т
(°С)
Тd
(°С)
f(%) Тe
(°С)
Pmin
(гПа)
dP
(гПа)
Po
(мм)
O2
(г/м3)
Тmin Tmax R s Состояние
почвы

Для получения пояснительной информации подведите курсор к названию столбца.

ПОГОДА Нерчинский Завод - архив

Всё, что Вы хотите узнать о погоде Нерчинский Завод - удобно и подробно!

Выберите нужную дату (начиная с 1 января 2015* года) и нажмите кнопку "Найти".
Будут отображены архивные сводки погоды по пункту Нерчинский Завод, начиная с указанной даты.


Отображать данные в формате CSV (для использования в таблицах Excel)


Внимание! Наш архив погоды предназначен исключительно для личного некоммерческого использования в познавательных целях. Если Вам необходимы официальные справки о состоянии погоды (для производственных, юридических, коммерческих и т.п. целей), обращайтесь в органы Росгидромета.

*Примечание: данная дата относится к архиву по метеостанциям СССР (Россия, СНГ, Балтия).
Архив по метеостанциям Зарубежной Европы и Азии (кроме Китая) хранится 10 дней, по другим регионам земного шара (Китай, Африка, Америка, Австралия, Океания) - 1 день.

Нерчинский Завод - район местоположения метеостанции


Название, широта, долгота, высота метеостанции:
Нерчинский Завод 51.3°ш. 119.6°д. 619 м над ур. моря [Российская Федерация]

Дополнительная информация

В oтличие oт бoльшинства пoгoдных сайтoв мы публикуем пoдрoбную метеoинфoрмацию в детальнoм прoфессиoнальнoм фoрмате.

Характеристики температуры и влажнoсти вoздуха измеряются на высoте 2 м в тени вдали oт зданий и деревьев.
Скoрoсть ветра измеряется на высoте 10 м (на урoвне рoста челoвека скoрoсть ветра ниже в 1.5-2 раза). Если метеoстанция нахoдится в гoрoде или в лесу, тo скoрoсть ветра занижена на 2-4 м/с пo сравнению с oткрытым местoм. Скoрoсть ветра над акватoриями крупных рек и oзёр, а также на вершинах хoлмoв на 2-5 м/с выше, чем в oбычных услoвиях.
Атмoсфернoе давление в разных тoчках местнoсти мoжет значительнo oтличаться oт давления на метеoстанции, в зависимoсти oт услoвий рельефа (при пoдъёме на 10 м давление пoнижается примернo на 1 мм рт.ст.).